Tracking 19831 objects as of 23-Aug-2019
HD Live streaming from Space Station
objects crossing your sky now

SCOUT G-1 DEB

Track SCOUT G-1 DEB now!
10-day predictions


NORAD ID: 19181
Int'l Code: 1988-033G
Perigee: 995.9 km
Apogee: 1,378.3 km
Inclination: 89.9 °
Period: 109.0 minutes
Semi major axis: 7558 km
RCS: 0.0549 m2 (small)
Launch date: April 26, 1988
Source: United States (US)
Launch site: AIR FORCE WESTERN TEST RANGE (AFWTR)

Note: This is SATELLITE DEBRIS
aabbcc
Your satellite tracking list
Your tracking list is empty




NASA's NSSDC Master Catalog

Two Line Element Set (TLE):
1 19181U 88033G   19234.94908694  .00000142  00000-0  27021-3 0  9992
2 19181  89.8854 312.5883 0252983 125.7748 298.9939 13.21239703508640
Source of the keplerian elements: AFSPC